This is the latest recevied weather packets stored in our database for station/object VU3ZAG-13. If no packets are shown the sender has not sent any weather packets the latest 1 day(s).
| Time | Temp. | Humidity | Pressure | Rain* | Wind** | Luminosity | Snow |
|---|---|---|---|---|---|---|---|
| 1778013732 | 31.11° C | 49% | - | 0 mm | 1.79 m/s, 290° | - | - |
| 1778013423 | 31.11° C | 49% | - | 0 mm | 1.34 m/s, 285° | - | - |
| 1778013115 | 31.11° C | 49% | - | 0 mm | 1.79 m/s, 297° | - | - |
| 1778012806 | 31.11° C | 50% | - | 0 mm | 1.79 m/s, 286° | - | - |
| 1778012497 | 31.11° C | 50% | - | 0 mm | 1.79 m/s, 280° | - | - |
| 1778012188 | 31.11° C | 51% | - | 0 mm | 2.24 m/s, 278° | - | - |
| 1778011879 | 31.11° C | 52% | - | 0 mm | 3.13 m/s, 276° | - | - |
| 1778011570 | 31.11° C | 53% | - | 0 mm | 1.79 m/s, 264° | - | - |
| 1778011262 | 31.11° C | 54% | - | 0 mm | 1.79 m/s, 333° | - | - |
| 1778010953 | 31.11° C | 54% | - | 0 mm | 1.79 m/s, 274° | - | - |
| 1778010645 | 31.11° C | 54% | - | 0 mm | 1.79 m/s, 268° | - | - |
| 1778010336 | 31.11° C | 53% | - | 0 mm | 2.68 m/s, 281° | - | - |
| 1778010027 | 31.11° C | 54% | - | 0 mm | 1.34 m/s, 296° | - | - |
| 1778009718 | 31.11° C | 53% | - | 0 mm | 2.24 m/s, 266° | - | - |
| 1778009410 | 31.11° C | 54% | - | 0 mm | 1.79 m/s, 300° | - | - |
| 1778009101 | 31.11° C | 54% | - | 0 mm | 2.24 m/s, 276° | - | - |
| 1778008788 | 31.11° C | 53% | - | 0 mm | 1.79 m/s, 292° | - | - |
| 1778008480 | 31.11° C | 53% | - | 0 mm | 1.79 m/s, 284° | - | - |
| 1778008171 | 31.11° C | 53% | - | 0 mm | 1.34 m/s, 292° | - | - |
| 1778007862 | 31.11° C | 53% | - | 0 mm | 1.34 m/s, 282° | - | - |
| 1778007553 | 31.11° C | 53% | - | 0 mm | 2.24 m/s, 277° | - | - |
| 1778007245 | 31.11° C | 53% | - | 0 mm | 1.34 m/s, 279° | - | - |
| 1778006936 | 31.11° C | 53% | - | 0 mm | 1.34 m/s, 277° | - | - |
| 1778006628 | 31.11° C | 53% | - | 0 mm | 1.34 m/s, 289° | - | - |
| 1778006319 | 31.11° C | 52% | - | 0 mm | 2.24 m/s, 311° | - | - |
* Rain since midnight (hover to see other rain measurements)
** Current wind speed in m/s (hover to see current wind gust speed)